| time (UTC) | temp F | wind direction | speed MPH | gust MPH | rain 1hr in | rain 24hr in | rain mn in | humidity % | barometer mb |
| 20260504130530 | 59 | 308 | 0.0 | 2.0 | 0.00 | 0.00 | 0.00 | 48 | 1013.7 |
| 20260504110507 | 48 | 314 | 0.0 | 0.0 | 0.00 | 0.00 | 0.00 | 68 | 1014.6 |
| 20260504100541 | 49 | 314 | 0.0 | 1.0 | 0.00 | 0.00 | 0.00 | 63 | 1014.2 |
| 20260504090136 | 50 | 188 | 0.0 | 1.0 | 0.00 | 0.00 | 0.00 | 61 | 1014.5 |
| 20260504081533 | 49 | 188 | 0.0 | 0.0 | 0.00 | 0.00 | 0.00 | 69 | 1014.6 |
| 20260504081033 | 48 | 188 | 0.0 | 0.0 | 0.00 | 0.00 | 0.00 | 66 | 1014.5 |
| 20260504080535 | 48 | 188 | 0.0 | 0.0 | 0.00 | 0.00 | 0.00 | 66 | 1014.4 |
| 20260504050512 | 44 | 24 | 0.0 | 0.0 | 0.00 | 0.00 | 0.00 | 67 | 1015.3 |
| 20260504050012 | 44 | 24 | 0.0 | 0.0 | 0.00 | 0.00 | 0.00 | 65 | 1015.3 |
| 20260504045510 | 45 | 24 | 0.0 | 0.0 | 0.00 | 0.00 | 0.00 | 65 | 1015.2 |
| 20260504045010 | 44 | 24 | 0.0 | 0.0 | 0.00 | 0.00 | 0.00 | 65 | 1015.3 |
| 20260504044509 | 44 | 24 | 0.0 | 0.0 | 0.00 | 0.00 | 0.00 | 65 | 1015.3 |
| 20260504044010 | 44 | 24 | 0.0 | 0.0 | 0.00 | 0.00 | 0.00 | 65 | 1015.3 |
| 20260504043511 | 45 | 24 | 0.0 | 0.0 | 0.00 | 0.00 | 0.00 | 66 | 1015.1 |
| 20260504043012 | 44 | 24 | 0.0 | 0.0 | 0.00 | 0.00 | 0.00 | 66 | 1015.2 |
| 20260504042507 | 44 | 24 | 0.0 | 0.0 | 0.00 | 0.00 | 0.00 | 65 | 1015.1 |
| 20260504042006 | 44 | 24 | 0.0 | 0.0 | 0.00 | 0.00 | 0.00 | 64 | 1015.0 |
| 20260504041506 | 44 | 24 | 0.0 | 0.0 | 0.00 | 0.00 | 0.00 | 64 | 1015.0 |
| 20260504041004 | 45 | 24 | 0.0 | 0.0 | 0.00 | 0.00 | 0.00 | 64 | 1015.0 |
| 20260504040503 | 45 | 24 | 0.0 | 0.0 | 0.00 | 0.00 | 0.00 | 63 | 1015.0 |
| 20260504040006 | 46 | 24 | 0.0 | 0.0 | 0.00 | 0.00 | 0.00 | 62 | 1015.0 |
| 20260504035503 | 46 | 24 | 0.0 | 0.0 | 0.00 | 0.00 | 0.00 | 62 | 1015.0 |
| 20260504035002 | 46 | 24 | 0.0 | 0.0 | 0.00 | 0.00 | 0.00 | 63 | 1015.0 |
| 20260504034501 | 46 | 24 | 0.0 | 0.0 | 0.00 | 0.00 | 0.00 | 61 | 1015.1 |
| 20260504034102 | 46 | 24 | 0.0 | 0.0 | 0.00 | 0.00 | 0.00 | 62 | 1015.0 |
| 20260504033600 | 46 | 24 | 0.0 | 0.0 | 0.00 | 0.00 | 0.00 | 60 | 1015.0 |
| 20260504033105 | 47 | 24 | 0.0 | 0.0 | 0.00 | 0.00 | 0.00 | 60 | 1015.0 |
| 20260504032600 | 47 | 24 | 0.0 | 0.0 | 0.00 | 0.00 | 0.00 | 61 | 1014.9 |
| 20260504032102 | 47 | 24 | 0.0 | 0.0 | 0.00 | 0.00 | 0.00 | 62 | 1014.9 |
| 20260504031605 | 47 | 24 | 0.0 | 0.0 | 0.00 | 0.00 | 0.00 | 58 | 1014.9 |
| 20260504031103 | 47 | 24 | 0.0 | 0.0 | 0.00 | 0.00 | 0.00 | 59 | 1014.8 |
| 20260504030603 | 47 | 24 | 0.0 | 0.0 | 0.00 | 0.00 | 0.00 | 62 | 1014.7 |
| 20260504030100 | 47 | 24 | 0.0 | 0.0 | 0.00 | 0.00 | 0.00 | 59 | 1014.7 |
| 20260504025600 | 47 | 24 | 0.0 | 0.0 | 0.00 | 0.00 | 0.00 | 59 | 1014.7 |
| 20260504025102 | 47 | 24 | 0.0 | 0.0 | 0.00 | 0.00 | 0.00 | 58 | 1014.7 |
| 20260504024600 | 47 | 24 | 0.0 | 0.0 | 0.00 | 0.00 | 0.00 | 59 | 1014.6 |
| 20260504024101 | 47 | 24 | 0.0 | 0.0 | 0.00 | 0.00 | 0.00 | 59 | 1014.6 |
| 20260504023558 | 47 | 24 | 0.0 | 0.0 | 0.00 | 0.00 | 0.00 | 58 | 1014.5 |
| 20260504023059 | 47 | 24 | 0.0 | 0.0 | 0.00 | 0.00 | 0.00 | 59 | 1014.4 |
| 20260504022558 | 47 | 24 | 0.0 | 0.0 | 0.00 | 0.00 | 0.00 | 59 | 1014.5 |
| 20260504022059 | 47 | 24 | 0.0 | 0.0 | 0.00 | 0.00 | 0.00 | 59 | 1014.4 |
| 20260504021601 | 47 | 24 | 0.0 | 0.0 | 0.00 | 0.00 | 0.00 | 57 | 1014.4 |
| 20260504021100 | 47 | 24 | 0.0 | 0.0 | 0.00 | 0.00 | 0.00 | 58 | 1014.4 |
| 20260504020557 | 48 | 24 | 0.0 | 0.0 | 0.00 | 0.00 | 0.00 | 56 | 1014.4 |
| 20260504020114 | 48 | 24 | 0.0 | 0.0 | 0.00 | 0.00 | 0.00 | 57 | 1014.4 |
| 20260504015557 | 48 | 24 | 0.0 | 0.0 | 0.00 | 0.00 | 0.00 | 55 | 1014.3 |
| 20260504015058 | 48 | 24 | 0.0 | 0.0 | 0.00 | 0.00 | 0.00 | 55 | 1014.3 |
| 20260504014604 | 48 | 24 | 0.0 | 0.0 | 0.00 | 0.00 | 0.00 | 55 | 1014.2 |
| 20260504014056 | 49 | 24 | 0.0 | 0.0 | 0.00 | 0.00 | 0.00 | 52 | 1014.2 |
| 20260504013556 | 49 | 24 | 0.0 | 0.0 | 0.00 | 0.00 | 0.00 | 52 | 1014.2 |
| 20260504013105 | 50 | 24 | 0.0 | 0.0 | 0.00 | 0.00 | 0.00 | 53 | 1014.2 |
| 20260504012659 | 50 | 24 | 0.0 | 0.0 | 0.00 | 0.00 | 0.00 | 52 | 1014.1 |
| 20260504012056 | 50 | 24 | 0.0 | 0.0 | 0.00 | 0.00 | 0.00 | 51 | 1014.1 |
| 20260504011556 | 50 | 24 | 0.0 | 0.0 | 0.00 | 0.00 | 0.00 | 51 | 1014.1 |
| 20260504011058 | 51 | 24 | 0.0 | 0.0 | 0.00 | 0.00 | 0.00 | 51 | 1014.1 |
| 20260504010555 | 51 | 24 | 0.0 | 0.0 | 0.00 | 0.00 | 0.00 | 51 | 1014.1 |
| 20260504010055 | 51 | 24 | 0.0 | 0.0 | 0.00 | 0.00 | 0.00 | 50 | 1014.2 |
| 20260504005555 | 51 | 24 | 0.0 | 0.0 | 0.00 | 0.00 | 0.00 | 50 | 1014.1 |
| 20260504005057 | 51 | 24 | 0.0 | 0.0 | 0.00 | 0.00 | 0.00 | 49 | 1014.0 |
| 20260504004557 | 52 | 24 | 0.0 | 0.0 | 0.00 | 0.00 | 0.00 | 47 | 1013.9 |
| 20260504004054 | 52 | 24 | 0.0 | 0.0 | 0.00 | 0.00 | 0.00 | 45 | 1013.9 |
| 20260504003554 | 52 | 24 | 0.0 | 0.0 | 0.00 | 0.00 | 0.00 | 43 | 1013.8 |
| 20260504003057 | 53 | 24 | 0.0 | 0.0 | 0.00 | 0.00 | 0.00 | 41 | 1013.8 |
| 20260504002558 | 53 | 24 | 0.0 | 0.0 | 0.00 | 0.00 | 0.00 | 42 | 1013.9 |
| 20260504002054 | 54 | 24 | 0.0 | 0.0 | 0.00 | 0.00 | 0.00 | 40 | 1013.9 |
| 20260504001558 | 55 | 24 | 0.0 | 0.0 | 0.00 | 0.00 | 0.00 | 39 | 1013.8 |
| 20260504001053 | 56 | 24 | 0.0 | 0.0 | 0.00 | 0.00 | 0.00 | 39 | 1013.8 |
| 20260504000552 | 56 | 24 | 0.0 | 0.0 | 0.00 | 0.00 | 0.00 | 38 | 1013.7 |
| 20260504000057 | 57 | 24 | 0.0 | 1.0 | 0.00 | 0.00 | 0.00 | 37 | 1013.7 |
| 20260503235553 | 57 | 24 | 0.0 | 1.0 | 0.00 | 0.00 | 0.00 | 36 | 1013.6 |
| 20260503235053 | 58 | 24 | 0.0 | 4.0 | 0.00 | 0.00 | 0.00 | 35 | 1013.6 |
| 20260503234553 | 58 | 24 | 0.0 | 4.0 | 0.00 | 0.00 | 0.00 | 36 | 1013.5 |
| 20260503234052 | 59 | 300 | 0.0 | 2.0 | 0.00 | 0.00 | 0.00 | 35 | 1013.5 |
| 20260503233552 | 59 | 315 | 0.0 | 1.0 | 0.00 | 0.00 | 0.00 | 34 | 1013.5 |
| 20260503233052 | 59 | 309 | 0.0 | 1.0 | 0.00 | 0.00 | 0.00 | 34 | 1013.5 |
| 20260503232553 | 59 | 309 | 0.0 | 1.0 | 0.00 | 0.00 | 0.00 | 35 | 1013.4 |
| 20260503232052 | 59 | 98 | 0.0 | 2.0 | 0.00 | 0.00 | 0.00 | 35 | 1013.4 |
| 20260503231552 | 59 | 98 | 0.0 | 3.0 | 0.00 | 0.00 | 0.00 | 34 | 1013.4 |
| 20260503231052 | 60 | 360 | 0.0 | 3.0 | 0.00 | 0.00 | 0.00 | 34 | 1013.3 |
| 20260503230551 | 60 | 39 | 0.0 | 1.0 | 0.00 | 0.00 | 0.00 | 34 | 1013.3 |
| 20260503230108 | 60 | 305 | 0.0 | 4.0 | 0.00 | 0.00 | 0.00 | 32 | 1013.2 |
| 20260503225554 | 60 | 337 | 0.0 | 4.0 | 0.00 | 0.00 | 0.00 | 33 | 1013.2 |
| 20260503225051 | 61 | 316 | 0.0 | 3.0 | 0.00 | 0.00 | 0.00 | 33 | 1013.2 |
| 20260503224558 | 61 | 353 | 0.0 | 3.0 | 0.00 | 0.00 | 0.00 | 31 | 1013.2 |
| 20260503224050 | 61 | 319 | 0.0 | 6.0 | 0.00 | 0.00 | 0.00 | 31 | 1013.2 |
| 20260503223550 | 61 | 305 | 0.0 | 5.0 | 0.00 | 0.00 | 0.00 | 31 | 1013.2 |
| 20260503223050 | 62 | 258 | 0.0 | 5.0 | 0.00 | 0.00 | 0.00 | 31 | 1013.3 |
| 20260503222549 | 62 | 116 | 0.0 | 5.0 | 0.00 | 0.00 | 0.00 | 30 | 1013.3 |
| 20260503222051 | 62 | 283 | 0.0 | 5.0 | 0.00 | 0.00 | 0.00 | 30 | 1013.3 |
| 20260503221549 | 63 | 321 | 1.0 | 4.0 | 0.00 | 0.00 | 0.00 | 31 | 1013.3 |
| 20260503221049 | 63 | 338 | 0.0 | 3.0 | 0.00 | 0.00 | 0.00 | 29 | 1013.3 |
| 20260503220549 | 63 | 108 | 0.0 | 4.0 | 0.00 | 0.00 | 0.00 | 29 | 1013.4 |
| 20260503220049 | 64 | 314 | 1.0 | 4.0 | 0.00 | 0.00 | 0.00 | 27 | 1013.4 |
| 20260503215549 | 65 | 313 | 0.0 | 4.0 | 0.00 | 0.00 | 0.00 | 29 | 1013.4 |
| 20260503215048 | 65 | 155 | 0.0 | 4.0 | 0.00 | 0.00 | 0.00 | 29 | 1013.3 |
| 20260503214549 | 65 | 135 | 0.0 | 5.0 | 0.00 | 0.00 | 0.00 | 26 | 1013.3 |
| 20260503214046 | 65 | 313 | 0.0 | 5.0 | 0.00 | 0.00 | 0.00 | 29 | 1013.4 |
| 20260503213546 | 64 | 316 | 1.0 | 4.0 | 0.00 | 0.00 | 0.00 | 27 | 1013.4 |
| 20260503213046 | 64 | 323 | 0.0 | 4.0 | 0.00 | 0.00 | 0.00 | 27 | 1013.5 |
| 20260503212546 | 64 | 319 | 1.0 | 7.0 | 0.00 | 0.00 | 0.00 | 27 | 1013.5 |
| 20260503212046 | 64 | 286 | 3.0 | 7.0 | 0.00 | 0.00 | 0.00 | 26 | 1013.6 |
| 20260503211604 | 65 | 335 | 0.0 | 6.0 | 0.00 | 0.00 | 0.00 | 26 | 1013.6 |
| 20260503211045 | 65 | 348 | 0.0 | 6.0 | 0.00 | 0.00 | 0.00 | 27 | 1013.6 |
| 20260503210547 | 64 | 110 | 0.0 | 9.0 | 0.00 | 0.00 | 0.00 | 28 | 1013.6 |
| 20260503210045 | 64 | 326 | 1.0 | 9.0 | 0.00 | 0.00 | 0.00 | 27 | 1013.5 |
| 20260503205544 | 65 | 312 | 2.0 | 6.0 | 0.00 | 0.00 | 0.00 | 27 | 1013.5 |
| 20260503205044 | 65 | 321 | 1.0 | 3.0 | 0.00 | 0.00 | 0.00 | 26 | 1013.6 |
| 20260503204543 | 64 | 314 | 1.0 | 7.0 | 0.00 | 0.00 | 0.00 | 26 | 1013.7 |
| 20260503204043 | 65 | 98 | 2.0 | 7.0 | 0.00 | 0.00 | 0.00 | 27 | 1013.7 |
| 20260503203542 | 65 | 125 | 1.0 | 7.0 | 0.00 | 0.00 | 0.00 | 27 | 1013.7 |
| 20260503203047 | 65 | 84 | 0.0 | 5.0 | 0.00 | 0.00 | 0.00 | 27 | 1013.8 |
| 20260503202541 | 64 | 320 | 0.0 | 5.0 | 0.00 | 0.00 | 0.00 | 28 | 1013.7 |
| 20260503202041 | 65 | 340 | 1.0 | 3.0 | 0.00 | 0.00 | 0.00 | 28 | 1013.7 |
| 20260503201541 | 65 | 316 | 0.0 | 3.0 | 0.00 | 0.00 | 0.00 | 28 | 1013.8 |
| 20260503201044 | 65 | 126 | 0.0 | 4.0 | 0.00 | 0.00 | 0.00 | 29 | 1013.8 |
| 20260503200539 | 64 | 297 | 1.0 | 9.0 | 0.00 | 0.00 | 0.00 | 30 | 1014.0 |
| 20260503200053 | 64 | 326 | 1.0 | 9.0 | 0.00 | 0.00 | 0.00 | 30 | 1014.1 |
| 20260503195539 | 64 | 312 | 0.0 | 7.0 | 0.00 | 0.00 | 0.00 | 28 | 1014.2 |
| 20260503195038 | 63 | 312 | 2.0 | 7.0 | 0.00 | 0.00 | 0.00 | 32 | 1014.2 |
| 20260503194538 | 64 | 114 | 2.0 | 7.0 | 0.00 | 0.00 | 0.00 | 27 | 1014.3 |
| 20260503194037 | 64 | 55 | 2.0 | 7.0 | 0.00 | 0.00 | 0.00 | 29 | 1014.3 |
| 20260503193536 | 63 | 101 | 0.0 | 3.0 | 0.00 | 0.00 | 0.00 | 32 | 1014.4 |
| 20260503193037 | 62 | 94 | 0.0 | 7.0 | 0.00 | 0.00 | 0.00 | 32 | 1014.7 |
| 20260503192536 | 62 | 325 | 3.0 | 7.0 | 0.00 | 0.00 | 0.00 | 31 | 1014.7 |
| 20260503192034 | 63 | 330 | 3.0 | 9.0 | 0.00 | 0.00 | 0.00 | 29 | 1014.8 |
| 20260503191539 | 63 | 332 | 1.0 | 9.0 | 0.00 | 0.00 | 0.00 | 32 | 1014.9 |
| 20260503191034 | 63 | 109 | 1.0 | 5.0 | 0.00 | 0.00 | 0.00 | 31 | 1014.9 |
| 20260503190534 | 62 | 319 | 1.0 | 5.0 | 0.00 | 0.00 | 0.00 | 33 | 1015.0 |
| 20260503190034 | 62 | 328 | 0.0 | 6.0 | 0.00 | 0.00 | 0.00 | 30 | 1015.0 |
| 20260503185533 | 63 | 95 | 1.0 | 8.0 | 0.00 | 0.00 | 0.00 | 30 | 1015.2 |
| 20260503185033 | 63 | 112 | 3.0 | 8.0 | 0.00 | 0.00 | 0.00 | 31 | 1015.2 |
| 20260503184540 | 63 | 149 | 1.0 | 10.0 | 0.00 | 0.00 | 0.00 | 32 | 1015.3 |
| 20260503184031 | 62 | 110 | 3.0 | 10.0 | 0.00 | 0.00 | 0.00 | 31 | 1015.1 |
| 20260503183532 | 63 | 342 | 1.0 | 5.0 | 0.00 | 0.00 | 0.00 | 33 | 1015.4 |
| 20260503183030 | 62 | 335 | 0.0 | 6.0 | 0.00 | 0.00 | 0.00 | 34 | 1015.4 |
| 20260503182531 | 61 | 290 | 2.0 | 6.0 | 0.00 | 0.00 | 0.00 | 33 | 1015.4 |
| 20260503182032 | 62 | 129 | 0.0 | 5.0 | 0.00 | 0.00 | 0.00 | 35 | 1015.4 |
| 20260503181530 | 62 | 314 | 0.0 | 5.0 | 0.00 | 0.00 | 0.00 | 35 | 1015.4 |
| 20260503181031 | 63 | 99 | 1.0 | 5.0 | 0.00 | 0.00 | 0.00 | 30 | 1015.5 |
| 20260503180529 | 63 | 335 | 1.0 | 4.0 | 0.00 | 0.00 | 0.00 | 32 | 1015.5 |
| 20260503180043 | 61 | 87 | 0.0 | 5.0 | 0.00 | 0.00 | 0.00 | 34 | 1015.6 |
| 20260503175528 | 62 | 357 | 0.0 | 5.0 | 0.00 | 0.00 | 0.00 | 34 | 1015.5 |
| 20260503175027 | 62 | 87 | 0.0 | 6.0 | 0.00 | 0.00 | 0.00 | 33 | 1015.7 |
| 20260503174541 | 62 | 305 | 2.0 | 6.0 | 0.00 | 0.00 | 0.00 | 37 | 1015.8 |
| 20260503174025 | 61 | 295 | 1.0 | 5.0 | 0.00 | 0.00 | 0.00 | 32 | 1015.7 |
| 20260503173525 | 61 | 283 | 1.0 | 5.0 | 0.00 | 0.00 | 0.00 | 34 | 1015.8 |
| 20260503173034 | 60 | 317 | 1.0 | 10.0 | 0.00 | 0.00 | 0.00 | 36 | 1015.8 |
| 20260503172524 | 60 | 302 | 0.0 | 10.0 | 0.00 | 0.00 | 0.00 | 36 | 1015.8 |
| 20260503172027 | 60 | 70 | 0.0 | 10.0 | 0.00 | 0.00 | 0.00 | 34 | 1015.8 |
| 20260503171524 | 61 | 352 | 2.0 | 10.0 | 0.00 | 0.00 | 0.00 | 34 | 1015.7 |
| 20260503171022 | 60 | 118 | 0.0 | 7.0 | 0.00 | 0.00 | 0.00 | 35 | 1015.8 |
| 20260503170523 | 59 | 310 | 1.0 | 9.0 | 0.00 | 0.00 | 0.00 | 38 | 1016.0 |
| 20260503151007 | 55 | 135 | 2.0 | 8.0 | 0.00 | 0.00 | 0.00 | 41 | 1016.9 |
| 20260503150509 | 54 | 354 | 0.0 | 8.0 | 0.00 | 0.00 | 0.00 | 42 | 1016.9 |